GFSSE_850_temp_354.txt.gz
Temp
15 18 18 19 19 19 19 19 19 19 18 18 18 18 18 17 17 18 18 17 17 16 16 16 16 16 16 16 16 16 16 17 18 17 16 15 14 14 14 14 14 14 14
15 17 18 18 18 18 18 18 18 18 18 18 18 17 17 17 17 17 17 16 16 15 16 16 16 16 16 17 16 16 17 17 17 15 15 15 14 14 14 13 14 14 15
16 18 17 17 18 18 18 18 18 18 17 17 17 17 17 17 17 16 16 16 15 15 15 15 15 16 17 17 17 17 17 16 15 15 15 14 14 14 13 14 14 14 14
16 17 17 16 17 17 17 17 17 17 17 17 16 17 17 16 16 16 16 15 15 14 14 14 15 16 17 17 17 16 16 16 15 14 13 13 13 13 14 14 14 13 13
16 16 15 16 16 17 17 17 17 17 17 16 16 16 16 16 16 16 15 15 15 15 15 15 16 16 17 17 16 16 16 15 15 14 14 13 13 13 13 13 13 13 13
14 15 14 15 15 16 16 17 17 16 16 16 16 15 16 15 15 15 15 15 15 15 15 15 16 16 16 16 15 16 16 15 14 14 14 13 13 12 13 13 12 12 13
14 14 14 14 14 14 16 16 16 16 16 16 15 15 15 15 15 14 15 15 14 15 15 16 16 16 15 15 16 16 15 15 14 14 15 13 13 12 12 12 12 12 12
13 14 15 15 14 14 15 15 16 16 16 16 15 15 15 14 14 14 14 14 14 14 15 15 15 16 15 15 15 15 15 15 13 15 15 13 12 12 12 12 13 12 12
12 15 15 14 14 13 14 15 15 15 16 16 15 15 14 14 14 15 15 15 14 13 14 15 15 15 15 15 15 15 16 14 13 14 14 12 11 11 11 12 12 12 11
12 12 15 15 15 14 14 14 14 15 15 16 16 15 14 14 14 14 14 14 14 14 14 15 15 15 15 15 15 15 15 15 14 15 13 11 11 10 10 11 11 11 10
11 12 13 17 15 15 14 14 14 15 15 16 15 15 15 14 14 14 14 14 14 14 14 14 15 15 15 15 15 15 15 15 15 14 14 13 10 10 9 9 9 10 9
11 11 14 13 14 15 13 14 14 14 14 15 15 15 15 15 14 14 14 14 14 14 14 14 14 14 14 15 14 15 15 15 15 15 14 14 12 10 9 9 8 8 8
8 8 10 10 14 14 12 12 13 14 14 15 15 15 15 15 14 14 14 14 13 13 13 13 14 14 14 14 14 15 15 15 14 15 15 14 11 9 9 9 9 8 8
8 8 7 9 12 11 11 11 12 13 14 14 15 15 15 14 15 14 14 14 13 13 14 13 13 14 13 13 15 15 15 15 15 14 14 13 10 9 9 9 9 8 9
8 7 8 9 9 8 10 10 12 12 13 13 14 15 15 14 15 15 14 13 13 13 13 13 13 14 13 13 14 14 14 14 14 14 14 13 9 9 8 9 9 8 8
8 7 6 6 6 7 9 10 11 11 12 13 14 14 14 14 14 14 14 13 13 13 13 13 13 14 13 13 13 14 14 13 13 13 13 12 8 9 9 9 9 8 8
7 6 5 5 5 6 8 8 8 9 10 12 14 14 14 14 14 14 14 14 13 12 12 12 12 13 13 14 13 14 13 13 12 12 12 12 8 8 8 9 8 9 8
6 5 5 5 4 5 6 6 6 8 11 11 13 13 13 14 14 14 14 14 13 12 13 13 13 12 13 13 14 13 13 12 12 12 12 11 10 8 8 8 8 8 8
5 5 4 4 3 4 5 6 6 8 10 10 12 13 13 13 14 14 13 14 13 13 13 13 12 12 13 13 13 13 13 12 12 11 11 11 10 9 8 8 8 8 8
5 4 4 3 3 3 3 5 7 9 8 9 11 12 13 13 13 14 14 13 13 13 12 12 12 12 12 13 13 12 12 12 12 12 11 11 10 9 10 10 8 8 9
4 3 3 3 3 3 2 3 6 7 9 9 11 11 12 13 13 13 14 13 13 13 12 12 12 12 11 12 12 12 11 11 11 11 12 11 11 10 10 10 10 11 11
4 3 3 2 2 2 2 1 1 3 6 8 10 11 11 12 13 13 13 13 13 13 12 12 12 12 11 12 12 12 11 11 11 11 11 11 11 10 10 10 10 11 12
3 3 2 2 2 2 1 1 0 2 4 7 9 10 11 12 12 12 13 13 12 12 13 12 12 11 12 11 12 12 11 11 11 11 11 11 11 11 10 10 10 10 10
2 2 2 1 2 1 1 0 -0 0 1 2 5 8 11 11 11 12 12 13 12 12 12 12 12 12 12 12 11 11 12 12 11 10 11 11 11 11 11 10 10 10 9
2 1 1 1 1 1 1 0 -0 -1 0 1 3 7 8 9 10 11 12 12 12 12 12 13 12 12 12 12 11 11 11 11 12 12 11 11 11 11 11 11 11 10 9
1 1 0 0 0 0 0 0 -0 -1 -1 0 1 4 7 8 9 10 11 12 12 12 12 12 12 12 11 11 11 11 11 11 11 11 11 12 12 11 11 10 11 10 10

GFSSE_850_temp_357.txt.gz
Temp
17 16 17 17 17 17 18 18 18 18 18 18 18 17 17 17 17 17 17 17 17 17 17 16 16 16 16 16 16 16 16 16 17 17 16 15 15 14 14 14 14 13 13
13 17 17 16 16 16 17 18 18 18 18 18 17 17 17 17 17 17 17 16 16 16 16 16 16 16 16 16 16 16 16 17 17 16 15 14 14 14 14 14 14 13 13
14 14 15 16 16 17 17 17 17 17 17 17 17 17 17 17 17 17 17 17 17 16 16 16 16 16 17 16 16 16 16 17 16 15 15 14 14 14 14 14 14 13 13
14 15 16 15 16 16 16 16 16 16 16 16 16 16 16 16 16 16 16 16 16 15 15 15 15 16 17 17 16 16 16 16 15 15 14 14 13 13 14 14 14 13 13
14 15 15 16 15 15 16 16 16 16 16 15 16 16 15 15 15 15 15 15 15 15 14 14 15 16 17 17 16 16 15 14 14 14 14 14 13 13 14 13 13 13 13
14 14 14 14 15 15 14 16 16 15 15 15 15 15 15 15 15 15 15 15 15 15 15 14 15 16 16 16 15 14 14 13 13 15 15 14 14 12 14 13 13 13 13
13 14 14 15 15 15 15 14 15 15 15 15 15 15 15 15 15 15 15 15 15 15 15 15 15 16 16 16 15 14 13 13 13 15 14 14 13 13 13 12 13 13 12
12 12 13 15 15 15 15 15 14 15 15 15 14 15 14 14 14 15 15 15 14 14 15 15 15 16 16 15 15 14 13 13 13 14 14 13 13 11 12 12 12 13 10
11 11 11 13 14 15 15 15 14 14 15 15 15 14 15 15 14 15 15 15 15 14 14 15 15 15 16 15 15 14 13 15 15 14 14 13 12 11 10 11 12 13 10
11 11 12 12 14 15 16 14 15 15 14 15 15 14 14 15 14 15 15 15 15 15 15 15 15 15 15 15 15 14 14 14 14 14 14 14 12 10 10 10 11 10 9
10 11 11 12 12 13 15 15 14 14 14 14 14 14 14 14 14 14 14 15 15 15 15 15 15 15 15 15 15 15 13 12 14 14 14 14 13 10 9 10 9 9 9
8 9 10 11 11 13 13 14 15 14 14 14 14 14 15 14 14 14 14 14 14 14 14 14 14 15 15 15 15 15 14 14 14 14 14 14 13 13 9 9 8 8 9
7 7 8 8 10 12 13 14 13 14 14 14 13 14 14 14 14 13 13 13 13 13 14 14 14 14 15 15 15 15 14 14 14 14 14 14 13 13 9 9 9 9 8
6 6 6 6 8 10 11 12 12 12 13 13 14 14 13 15 15 14 13 13 13 14 14 13 14 14 14 15 15 14 13 14 14 14 14 13 13 13 8 8 8 8 8
6 6 5 5 6 7 9 10 12 12 12 12 13 14 13 14 15 15 14 13 14 13 13 13 13 13 14 14 15 14 12 14 14 14 13 13 12 13 9 9 9 8 8
5 5 5 5 5 6 7 9 11 10 11 12 12 14 13 13 15 15 14 13 13 13 13 13 13 13 14 14 14 13 13 14 14 13 13 13 12 11 9 9 8 9 8
4 4 4 4 5 6 7 8 10 8 12 11 12 12 13 13 13 15 15 13 13 13 13 13 13 12 13 13 13 13 13 13 14 13 13 12 12 9 8 8 8 8 8
4 3 3 3 3 4 6 7 8 7 11 10 11 12 13 13 13 14 15 15 14 13 12 12 12 12 13 12 13 14 13 13 13 13 13 12 12 9 9 8 9 8 8
4 3 3 3 2 3 3 6 7 8 9 8 10 11 12 13 13 13 14 14 13 13 13 12 12 12 12 12 13 14 13 13 13 13 12 12 12 11 8 8 8 8 8
3 2 2 2 2 2 2 3 6 7 7 7 9 10 12 12 13 13 13 14 14 12 12 12 12 12 12 12 13 13 13 13 13 13 12 12 11 11 10 9 7 8 8
2 2 1 1 1 1 1 2 3 5 7 7 8 9 10 11 13 13 12 13 13 13 13 12 13 12 12 12 13 12 12 12 11 11 11 12 12 11 11 10 10 10 8
2 2 1 1 1 1 1 1 1 2 4 5 7 9 10 11 12 13 13 13 13 13 13 12 12 12 12 12 12 12 11 11 11 11 11 11 11 11 11 10 10 10 10
1 1 1 0 0 0 0 0 -0 1 3 5 6 8 9 10 10 12 12 13 12 12 12 12 12 12 12 12 11 12 11 12 11 11 11 11 11 11 11 11 10 10 10
1 1 0 -0 -0 -0 -0 -0 -1 -1 -1 -1 2 5 7 8 10 10 11 12 12 12 12 12 12 12 12 11 11 11 12 12 11 11 11 11 11 11 11 11 11 10 11
1 0 -0 -0 -0 -0 -1 -0 -1 -1 -1 -1 -1 3 6 7 8 10 11 12 12 12 12 12 12 12 12 12 12 11 11 11 11 12 11 11 11 11 11 11 11 11 11
0 0 -0 -1 -1 -1 -1 -1 -1 -1 -1 -1 -1 0 4 6 7 9 9 11 12 12 12 12 12 12 12 11 12 11 11 11 11 11 11 11 11 11 11 11 11 10 10

GFSSE_850_temp_363.txt.gz
Temp
14 14 14 15 15 17 18 18 17 17 17 17 17 17 16 16 16 16 16 17 17 17 17 17 17 16 16 16 16 16 16 15 15 15 14 14 14 14 14 14 15 15 15
11 12 14 14 15 15 17 18 17 16 16 16 16 16 16 16 16 16 16 16 16 17 16 16 16 16 16 16 16 16 16 16 15 14 14 14 14 14 14 15 15 15 14
12 12 13 14 15 15 15 16 15 15 16 16 15 16 16 16 16 16 16 16 16 16 16 16 15 15 15 15 15 16 16 15 14 14 14 14 14 14 15 15 15 14 13
12 13 13 14 15 15 14 15 15 15 15 15 15 15 15 16 16 16 15 16 16 16 16 15 15 15 15 15 15 15 15 15 14 15 14 14 14 14 14 14 14 13 12
12 13 13 13 14 15 14 15 15 15 15 15 15 15 15 15 15 15 15 15 15 15 16 15 15 15 15 15 15 14 14 14 14 14 15 15 14 14 14 14 13 12 11
11 13 13 13 13 14 16 16 15 15 14 15 15 15 15 15 15 15 15 15 15 14 15 14 15 15 15 14 14 14 14 14 14 14 14 14 14 13 14 13 13 12 10
10 11 12 12 13 14 14 15 16 15 14 14 14 15 15 15 15 15 15 15 15 14 13 13 14 15 14 14 14 14 14 14 14 14 14 14 13 13 13 13 12 10 10
10 10 11 12 12 12 13 14 14 15 15 14 14 15 14 15 15 15 15 15 15 14 13 13 13 14 14 14 13 13 13 14 14 14 14 13 13 12 12 12 11 9 9
9 10 10 11 12 11 12 13 13 14 15 15 14 14 14 15 15 15 14 15 15 15 14 14 14 14 13 13 14 14 13 14 14 14 13 13 12 12 11 12 10 9 9
10 9 9 9 10 11 11 12 13 14 14 15 15 14 14 15 14 14 14 14 15 15 14 14 14 13 13 13 14 14 14 14 14 14 13 13 12 12 11 11 9 9 9
8 9 9 9 9 10 11 11 12 13 14 15 14 14 13 14 15 14 14 14 14 15 15 14 14 14 13 13 14 14 14 14 13 13 13 12 12 11 10 10 9 8 9
6 7 7 8 8 9 10 11 11 11 13 13 14 14 14 13 13 14 14 14 15 15 14 14 14 14 13 13 14 14 14 13 13 13 13 12 11 12 10 9 9 8 9
5 6 7 7 7 8 8 9 9 11 11 12 12 12 13 13 13 13 14 14 14 14 14 14 14 13 13 13 14 14 13 14 13 13 13 12 12 11 10 8 9 8 8
4 5 6 7 7 7 7 7 8 9 10 11 12 12 12 13 13 13 14 14 14 14 14 14 14 14 13 13 13 13 14 14 13 13 13 12 12 11 10 9 9 8 8
3 3 4 5 6 7 7 7 7 8 8 10 11 11 11 12 13 13 14 14 14 14 14 14 13 14 13 13 13 13 14 14 14 13 13 13 12 11 9 9 9 8 8
2 2 3 3 5 5 7 7 7 7 7 8 10 11 11 12 13 13 13 13 14 14 14 13 13 13 13 13 13 13 14 14 14 13 13 13 12 11 8 9 9 9 8
3 2 2 2 3 4 5 6 6 6 6 6 8 10 11 11 12 13 13 13 13 14 13 13 13 13 13 12 13 13 13 14 14 13 13 12 12 11 9 9 8 8 8
2 2 2 1 1 2 4 5 5 6 5 5 7 9 10 11 11 13 13 13 13 13 13 13 13 12 12 12 13 13 13 13 13 13 13 13 12 11 9 8 8 8 8
2 2 1 1 0 1 2 3 4 5 5 5 6 7 9 10 11 12 13 12 12 13 12 13 13 12 12 13 12 12 12 13 13 13 13 13 12 11 10 8 8 8 8
1 1 1 1 -0 -0 1 2 3 4 4 5 5 6 8 9 11 11 11 12 12 13 12 12 12 12 12 12 12 12 12 12 13 13 13 13 12 11 11 10 8 8 8
1 1 1 1 -0 -1 -0 0 1 1 3 5 5 4 7 8 9 11 12 12 12 12 12 12 12 12 12 11 12 12 12 12 12 13 13 13 12 12 11 10 10 8 7
1 0 0 0 -0 -1 -1 -0 -1 -0 1 2 4 3 6 7 8 10 11 12 12 12 12 12 12 12 12 11 11 11 10 10 11 11 12 12 12 12 11 11 10 10 10
-0 0 -0 -0 -0 -1 -1 -1 -1 -0 0 1 3 4 6 6 6 8 10 11 12 12 12 12 12 12 12 11 11 11 10 10 10 10 11 12 12 12 11 11 11 11 11
-0 -0 -0 -1 -1 -1 -1 -1 -1 -1 -1 -1 -0 1 4 5 6 7 9 10 11 11 12 12 12 12 12 12 11 11 11 12 11 11 11 11 12 11 11 11 11 11 11
-0 -0 -1 -1 -1 -1 -2 -2 -2 -2 -2 -1 -1 -0 1 3 5 6 7 9 10 11 12 12 12 12 12 13 13 11 11 11 12 12 11 11 11 11 11 11 11 11 11
-0 -1 -1 -1 -2 -2 -2 -2 -2 -2 -2 -2 -1 -1 -0 1 4 6 6 8 8 10 11 11 12 12 12 12 12 12 12 11 12 13 12 12 12 12 12 12 12 12 12

GFSSE_850_temp_366.txt.gz
Temp
13 12 13 14 14 15 15 16 16 17 17 17 16 16 16 16 17 16 17 17 17 17 17 17 17 17 16 17 16 16 15 15 15 15 15 14 14 14 14 15 15 15 13
11 12 13 13 14 14 15 15 16 16 17 16 16 16 16 16 16 16 16 16 16 16 17 17 17 16 16 16 16 16 16 15 14 14 14 14 14 14 15 15 15 13 13
11 11 12 13 13 15 15 15 15 15 16 15 15 15 15 16 16 16 16 16 16 16 16 16 16 16 16 16 16 16 16 15 14 14 13 14 14 15 15 15 14 14 12
11 12 12 12 14 15 16 16 15 15 15 15 15 15 15 15 15 15 15 16 15 16 16 16 15 15 15 15 15 16 15 14 14 14 14 14 14 14 15 14 13 12 11
10 11 12 12 14 15 15 15 16 15 14 15 15 15 15 15 15 15 15 15 15 15 15 15 15 15 15 15 15 15 14 14 14 14 14 14 14 14 14 13 13 13 10
8 9 12 12 13 14 15 14 15 15 14 14 15 15 15 15 15 15 15 15 15 15 15 15 15 15 15 15 14 14 14 14 14 14 14 14 14 13 13 13 13 11 11
8 9 11 12 12 13 14 15 16 15 15 14 14 14 14 14 15 15 15 14 14 15 14 14 13 14 14 14 14 14 14 14 14 14 14 14 13 13 13 13 12 10 10
8 8 10 12 12 11 12 13 15 16 14 15 14 14 14 14 14 14 14 14 15 14 14 14 13 13 14 14 14 14 14 14 14 14 13 13 12 11 11 11 10 10 10
9 9 9 10 11 12 12 12 13 13 14 14 15 14 14 14 14 14 14 14 15 13 14 13 13 13 14 13 13 13 13 14 14 14 13 12 11 11 11 10 9 9 9
9 9 9 9 9 10 11 11 11 12 12 14 14 14 14 13 14 14 13 14 14 13 13 13 13 12 13 13 13 13 14 14 14 13 13 12 11 10 10 10 9 9 9
9 9 8 8 8 9 9 10 11 12 12 13 13 13 14 15 13 13 14 13 14 13 13 13 13 12 13 14 14 14 14 13 14 13 12 12 11 10 9 9 9 9 8
7 8 8 8 8 8 9 9 10 11 12 12 13 14 14 14 14 14 13 14 14 13 14 13 14 13 13 13 13 14 14 13 13 13 12 12 11 10 9 9 9 8 8
4 5 6 7 7 8 8 8 8 10 11 11 12 12 14 14 13 13 13 13 13 14 13 13 13 12 12 13 13 14 13 13 13 13 13 12 11 10 9 9 8 9 8
3 3 4 5 6 6 7 8 8 8 9 10 11 11 11 12 13 13 13 13 14 14 13 13 13 13 13 13 13 13 13 13 14 13 13 12 11 10 9 9 9 8 9
2 2 2 3 4 5 6 6 8 8 8 8 9 10 11 11 12 12 13 13 13 13 13 13 12 13 13 12 13 13 14 14 14 13 13 12 11 10 9 9 9 8 8
2 1 1 2 3 4 4 6 5 7 7 7 7 9 10 11 12 12 12 13 13 13 13 12 12 12 12 12 13 13 13 14 14 13 13 12 12 10 9 9 9 8 8
1 1 1 1 2 3 4 4 5 5 6 7 7 8 9 11 11 12 13 14 14 13 12 12 12 12 12 12 12 13 13 14 13 13 13 13 12 11 9 8 9 8 8
1 1 1 1 1 2 2 3 3 4 5 6 7 7 8 9 11 12 12 12 13 13 13 12 12 12 12 12 12 13 13 14 13 13 13 12 12 11 10 8 8 8 7
1 1 1 1 0 1 1 2 2 3 4 4 6 7 7 8 10 11 11 12 12 12 13 13 13 12 12 12 12 12 13 13 14 13 13 12 12 11 10 8 8 8 8
1 1 1 1 0 -0 0 1 2 2 3 3 5 7 6 7 9 10 10 11 12 12 12 12 12 12 12 12 11 12 12 12 13 13 13 12 12 11 10 10 8 8 8
1 1 1 0 0 -1 -0 -0 -0 0 1 2 2 5 7 6 7 8 10 11 12 12 12 12 12 12 12 11 11 11 11 12 12 12 12 12 12 12 11 10 10 8 8
1 1 1 -0 -0 -1 -1 -1 -1 -1 -0 0 1 2 5 6 6 6 9 11 11 11 12 12 12 12 12 11 11 11 11 10 11 11 11 12 12 11 11 11 10 10 9
0 0 -0 -1 -1 -1 -2 -1 -1 -1 -0 1 1 1 3 5 4 6 7 9 10 10 11 12 12 12 12 11 11 11 10 10 11 11 11 11 11 12 11 11 10 11 10
0 -0 -1 -1 -1 -2 -2 -2 -2 -2 -2 -2 -1 -0 1 2 2 6 6 8 8 11 12 11 12 12 12 12 11 11 11 11 10 10 11 11 11 12 11 11 11 11 11
-0 -1 -1 -1 -2 -2 -2 -2 -2 -2 -2 -2 -2 -1 0 1 1 5 7 6 7 9 10 11 11 12 12 12 12 11 12 11 11 11 11 11 11 12 12 11 11 11 11
-1 -1 -1 -2 -2 -2 -2 -3 -3 -3 -3 -3 -2 -2 -1 1 1 5 5 5 6 8 10 11 11 11 12 12 12 12 13 11 11 11 12 12 12 12 12 12 12 12 11

GFSSE_850_temp_369.txt.gz
Temp
11 11 12 13 14 14 14 15 16 16 16 16 16 16 16 16 17 17 17 16 16 17 17 17 17 17 17 17 16 16 16 16 15 15 14 14 14 14 14 15 14 12 13
8 11 12 13 13 14 14 15 15 15 16 16 16 15 16 16 16 16 16 16 16 17 17 16 16 16 17 17 16 16 16 15 15 14 14 14 14 14 15 15 15 12 13
8 11 12 12 13 13 13 16 15 15 15 16 15 15 15 15 15 16 16 15 16 16 17 16 16 16 16 16 16 16 16 15 14 14 14 14 14 15 15 14 13 13 12
8 10 12 12 12 13 15 15 15 15 15 15 15 15 15 15 15 15 15 15 15 16 16 16 16 16 16 16 16 16 16 15 14 13 13 12 14 14 14 14 12 12 11
8 8 11 12 12 13 14 15 14 14 15 15 15 14 15 15 15 15 15 15 15 15 15 15 15 15 15 15 15 15 15 15 15 14 13 14 14 13 13 13 12 11 11
8 8 9 11 12 13 13 14 15 14 14 15 16 14 14 14 15 15 15 15 15 15 14 15 15 15 15 15 15 15 14 14 14 14 13 14 13 12 13 13 11 11 10
8 9 10 10 11 11 12 13 14 14 14 14 16 15 14 14 14 14 14 14 15 15 14 14 14 14 15 15 14 14 14 14 14 14 12 13 12 13 13 12 11 11 10
8 9 9 9 10 11 12 12 13 14 14 15 15 15 14 13 13 14 14 14 14 15 14 14 14 14 15 14 14 14 14 14 14 14 12 12 11 11 11 11 10 10 10
8 9 10 10 9 10 11 12 12 13 13 15 15 14 14 13 13 13 14 14 14 14 14 13 14 13 14 14 14 14 14 14 14 13 12 11 11 10 10 10 10 10 10
8 8 8 9 9 10 10 10 11 12 13 14 14 15 14 14 13 13 13 14 14 14 14 13 13 13 13 13 14 13 13 14 14 13 12 11 12 10 10 9 10 9 9
7 7 6 8 9 9 10 10 10 11 11 12 13 14 14 14 15 14 13 13 14 13 13 13 13 13 12 13 13 13 14 14 13 13 12 12 11 10 10 9 10 9 9
6 6 7 7 7 8 8 9 10 10 10 11 11 12 13 13 14 14 13 13 13 13 13 13 13 12 12 12 13 13 14 14 13 13 12 12 11 10 10 10 9 8 9
3 5 5 5 6 7 8 8 9 9 8 10 11 11 12 13 13 14 13 13 12 13 13 13 12 13 12 12 12 14 13 13 13 13 13 12 11 10 10 9 9 8 9
2 3 4 4 5 5 6 6 7 8 8 8 9 10 11 12 12 13 14 13 12 12 13 13 12 13 12 12 12 13 13 13 13 13 13 12 11 10 9 9 8 8 9
2 2 2 3 3 4 4 5 5 6 6 8 8 9 10 11 12 12 13 13 12 12 13 12 12 13 13 12 12 12 14 13 13 13 12 12 12 10 9 9 9 9 9
2 2 2 2 2 3 3 3 4 4 5 6 7 8 8 10 11 12 12 12 13 12 12 12 12 13 13 13 14 13 13 14 13 13 12 12 12 10 9 9 9 9 9
2 2 1 1 1 2 2 2 2 3 4 4 5 8 8 9 10 12 11 12 12 12 11 11 11 12 12 13 14 13 13 13 13 13 13 12 12 11 9 9 9 8 8
2 2 1 1 1 1 1 1 1 2 3 4 4 6 8 8 8 11 11 12 12 12 12 12 12 12 12 12 13 12 13 13 13 13 12 12 11 10 9 9 10 9 8
2 2 1 1 1 0 0 1 1 1 1 2 3 4 7 7 7 10 10 11 11 12 12 12 12 12 12 12 12 12 12 13 13 13 13 12 12 11 9 9 9 9 8
2 1 1 1 0 -0 -1 -1 -1 -0 1 1 1 3 4 6 8 8 10 10 11 12 12 12 12 12 12 11 11 12 12 13 13 13 13 12 12 11 10 9 8 8 8
1 1 1 0 -0 -1 -1 -2 -2 -2 -1 1 1 2 3 4 7 7 8 10 11 11 12 12 12 12 12 11 11 11 11 12 12 12 12 12 11 11 10 8 8 8 8
1 0 0 -0 -1 -1 -2 -2 -2 -2 -2 -1 0 1 2 3 4 6 7 8 9 10 11 11 12 12 12 12 11 11 11 10 11 11 12 11 11 11 11 10 8 8 8
0 0 -0 -1 -1 -2 -2 -2 -3 -3 -2 -2 -1 0 1 2 3 6 6 6 8 9 11 11 12 12 12 11 11 11 10 10 10 11 11 11 11 11 11 11 10 9 8
-0 -0 -1 -1 -2 -2 -2 -2 -3 -3 -3 -3 -3 -1 -0 1 2 5 6 6 6 8 10 10 11 11 11 11 11 10 11 11 11 10 11 11 11 11 11 11 11 10 10
0 -0 -1 -1 -2 -2 -2 -3 -3 -3 -3 -3 -3 -2 -1 1 1 2 5 5 6 6 9 10 11 11 11 12 11 11 10 11 12 12 10 10 11 11 11 11 11 11 11
-0 -1 -1 -2 -2 -2 -3 -3 -3 -3 -4 -4 -3 -3 -2 -1 1 0 3 4 4 6 7 9 10 11 11 11 11 11 11 12 12 11 12 12 12 12 12 12 12 11 11

GFSSE_850_temp_375.txt.gz
Temp
8 8 8 11 11 12 13 14 15 15 15 16 16 16 16 16 16 16 16 16 16 16 16 16 16 16 16 16 17 17 16 16 15 15 15 15 15 15 15 13 13 13 13
6 8 8 9 9 11 13 13 14 15 15 16 15 15 15 16 16 16 16 16 16 16 16 16 16 16 16 16 16 16 16 15 15 15 15 15 15 15 15 14 13 14 13
6 9 8 9 9 11 12 13 13 14 15 15 15 14 15 15 15 15 15 15 16 16 16 16 16 16 16 16 16 16 16 15 14 14 14 13 14 15 15 14 14 12 11
7 8 8 9 9 11 11 13 13 14 15 16 15 14 14 14 14 15 14 14 15 15 16 16 15 15 16 16 16 16 15 15 14 14 13 12 12 15 15 14 13 12 12
7 7 7 9 10 11 11 12 13 13 14 15 15 14 14 14 14 14 14 14 14 14 15 15 15 16 16 15 16 16 15 14 14 14 13 13 12 14 14 13 12 11 11
7 7 8 9 10 11 11 12 12 13 13 14 14 14 15 14 14 14 13 14 14 14 14 14 14 15 15 15 16 15 15 14 14 13 13 12 12 14 13 12 12 11 11
6 8 9 9 10 10 11 11 12 13 13 13 13 14 14 14 13 14 14 13 14 13 14 14 14 14 15 15 16 15 15 14 14 14 13 12 12 13 12 12 12 11 11
6 6 9 8 8 9 10 11 11 12 12 13 13 13 13 14 14 13 13 13 13 13 14 14 13 13 15 15 15 14 15 15 14 14 14 12 13 13 12 12 11 10 11
6 5 5 5 7 9 9 9 11 11 11 12 13 13 13 13 14 13 13 13 13 13 13 14 13 13 13 13 14 14 15 16 16 16 14 12 12 13 12 11 11 11 11
7 6 5 5 5 6 6 9 10 10 11 11 11 13 13 13 13 13 13 13 13 13 13 13 13 13 13 14 14 14 15 16 16 15 13 13 13 12 11 11 11 10 10
7 6 6 5 5 6 6 6 8 9 9 9 10 11 12 13 13 13 13 13 13 14 13 13 13 13 13 14 13 14 15 15 17 15 15 14 13 12 11 11 11 10 10
7 6 6 5 4 5 6 5 6 6 8 8 9 10 10 12 12 12 13 13 14 14 13 13 12 12 13 13 13 14 15 15 15 15 15 13 12 11 11 11 10 10 10
7 6 5 5 4 4 5 5 5 5 5 6 8 8 9 10 11 12 12 13 13 13 12 12 12 12 12 13 13 13 14 15 15 14 14 13 12 11 11 10 10 9 10
7 6 5 5 3 3 4 4 4 5 4 4 6 7 8 9 10 11 12 12 13 13 12 12 12 12 12 12 13 13 13 14 14 14 13 13 12 11 11 11 10 10 10
7 5 4 4 3 3 3 3 4 4 4 4 3 5 6 8 9 10 11 11 12 13 13 12 12 12 12 12 12 12 14 14 14 14 13 13 12 11 11 10 10 10 10
6 6 4 4 3 2 3 2 3 4 3 4 3 4 5 7 8 9 10 11 11 12 12 12 12 12 13 13 12 12 13 14 15 14 13 13 12 10 10 10 10 10 10
6 5 4 4 3 2 3 2 3 4 3 4 3 2 4 5 6 7 8 10 11 12 12 12 12 12 13 12 12 12 12 13 14 13 12 12 12 10 10 10 10 10 10
6 5 4 3 3 2 2 2 3 3 3 3 3 2 3 4 5 6 6 8 10 11 11 12 12 12 13 12 12 12 12 13 13 13 14 12 11 10 9 10 10 10 10
6 5 4 3 3 2 2 2 2 2 3 3 3 2 1 2 4 5 6 7 9 10 11 11 12 12 12 12 12 12 12 13 13 13 12 13 12 11 10 9 10 10 10
6 5 4 3 3 2 2 2 2 2 2 3 3 2 1 1 1 4 5 6 7 9 10 11 12 11 12 12 12 12 12 12 13 13 13 12 12 11 11 11 10 9 9
6 5 4 3 2 2 2 2 2 2 2 2 2 2 1 0 1 2 4 5 6 8 9 10 10 11 11 11 11 11 11 12 12 13 13 12 12 11 12 11 10 10 10
6 5 3 3 2 1 1 1 1 1 1 2 2 2 2 1 1 -0 3 4 5 7 7 9 11 11 11 11 11 10 11 11 12 13 13 12 12 11 11 11 10 10 10
6 5 4 2 2 1 0 1 0 1 1 2 2 2 2 1 0 -0 2 3 4 5 7 8 8 11 11 11 11 10 10 11 12 12 12 12 12 12 11 11 11 11 11
5 5 3 2 1 1 0 0 -0 0 1 1 1 2 2 2 0 0 0 2 4 5 6 7 8 9 11 11 11 10 11 12 12 12 11 12 12 12 11 11 11 11 11
4 4 3 1 1 -0 -0 -1 -0 -0 -0 0 1 1 2 2 1 0 -0 1 3 4 6 7 8 8 9 11 11 11 11 11 12 12 12 11 11 12 12 11 10 11 11
4 3 2 1 0 0 -0 -1 -1 -1 -1 -0 -0 -1 -1 0 -0 -1 -1 -0 2 3 5 7 8 7 9 10 11 11 11 11 11 11 11 11 11 11 11 11 11 11 11

GFSSE_850_temp_381.txt.gz
Temp
8 9 9 11 10 11 12 12 13 13 13 14 14 15 15 15 15 16 16 16 16 16 16 16 16 16 16 16 16 17 16 16 16 16 16 16 16 13 13 14 14 13 13
7 8 8 10 11 12 12 12 12 12 13 13 14 14 15 15 15 15 15 16 15 15 15 15 16 16 16 16 17 17 16 16 15 16 16 16 15 13 13 13 13 12 12
8 8 9 9 9 11 13 12 12 12 12 13 13 14 14 15 15 15 15 15 15 15 14 15 15 16 16 16 16 16 15 15 15 16 16 16 15 13 12 13 12 12 12
7 7 9 7 8 10 11 11 12 12 12 12 13 13 13 14 14 14 14 15 14 14 15 14 15 16 15 15 16 16 15 15 15 15 15 15 15 13 13 12 12 12 11
8 8 7 6 10 10 11 10 10 11 11 12 12 13 13 13 14 14 14 14 14 15 15 15 15 15 15 15 16 15 14 14 14 14 14 15 15 13 12 11 12 12 12
7 8 8 9 9 8 10 8 11 12 10 11 12 12 13 13 13 14 14 14 14 14 14 13 14 14 15 15 15 14 14 14 13 14 15 15 15 13 12 12 12 11 11
7 7 8 8 9 7 10 10 12 9 10 11 11 12 12 13 13 13 14 13 14 13 13 13 13 14 14 14 15 14 13 14 14 14 15 14 14 13 11 11 11 11 11
7 7 6 7 7 8 7 6 8 8 9 11 11 11 12 12 13 13 13 13 13 13 13 13 14 13 14 14 14 14 13 13 13 14 15 14 14 12 11 11 11 11 11
7 7 6 5 7 7 7 6 7 8 8 10 11 11 11 12 12 13 13 13 13 13 13 13 13 13 14 14 14 14 14 13 13 14 14 14 13 12 11 10 11 11 10
8 7 6 5 5 6 6 6 6 5 6 10 10 11 10 11 12 12 13 13 13 13 13 13 13 13 13 15 14 14 13 13 13 13 14 14 14 13 11 10 10 10 10
8 7 6 6 5 5 5 6 6 6 5 8 10 10 9 10 12 12 12 13 13 13 13 13 13 13 13 14 14 13 13 13 13 13 13 14 13 14 12 11 10 10 9
8 7 6 5 5 5 5 5 5 5 4 5 6 8 9 8 10 11 12 11 12 13 13 13 13 13 13 14 14 13 14 13 14 14 13 14 13 14 12 11 10 10 9
8 7 6 5 4 5 5 5 5 5 4 4 4 6 8 8 8 9 11 11 12 12 13 13 13 13 13 14 14 13 13 13 12 13 13 14 13 13 12 10 10 10 10
8 7 6 5 5 4 4 4 4 4 4 3 4 4 5 7 8 8 9 10 12 12 12 13 12 12 13 14 15 14 13 13 12 13 14 14 14 13 11 10 10 10 10
8 7 7 6 5 4 5 4 4 4 4 3 3 3 4 5 6 7 8 9 11 12 12 12 12 12 12 13 14 14 13 13 13 12 14 14 14 13 11 11 10 10 9
9 7 7 6 5 5 4 3 3 3 3 3 3 3 3 3 5 6 6 8 9 11 12 12 12 12 12 12 13 13 13 13 12 12 13 14 14 13 11 11 10 10 9
9 8 7 6 5 5 4 3 3 2 2 3 2 2 3 3 3 5 6 7 7 10 11 12 12 12 12 12 13 13 13 13 12 12 12 13 13 13 11 10 10 10 10
9 8 7 6 5 4 3 3 2 2 2 2 2 2 2 3 3 3 5 6 6 8 10 11 12 12 11 12 12 12 13 13 12 12 12 12 13 13 10 9 10 10 10
9 8 7 6 5 4 2 2 2 2 2 2 2 2 2 2 2 2 4 5 5 7 8 10 11 11 12 12 12 12 12 12 12 12 12 12 13 13 11 9 10 10 10
8 7 7 6 4 3 3 2 1 1 1 1 1 2 1 2 2 2 2 4 5 6 7 9 11 11 11 12 12 12 12 11 12 12 12 12 12 12 12 10 10 10 10
7 7 6 5 3 2 2 1 0 1 1 1 1 1 2 1 1 2 2 3 3 5 6 7 10 11 11 11 11 11 11 12 12 12 12 12 12 12 12 11 11 10 10
6 6 5 4 3 2 2 1 0 0 0 0 1 1 -0 0 0 2 1 2 3 4 5 6 8 9 11 11 11 11 11 10 11 11 11 12 12 11 12 12 11 11 11
6 5 4 3 2 2 1 0 -0 0 -0 0 -0 -1 -0 -0 -0 0 1 1 2 4 5 6 7 9 10 10 10 10 10 11 11 11 11 12 11 11 12 12 11 11 11
5 4 3 3 2 1 0 -0 -0 -1 -1 -1 -1 -1 -1 -1 -1 -0 -0 0 1 2 4 5 6 7 8 10 11 10 11 11 11 11 11 11 11 11 12 12 12 11 11
5 4 3 2 1 1 0 -0 -0 -1 -1 -1 -1 -1 -1 -1 -1 0 -0 -0 0 1 4 5 6 6 7 9 10 10 10 11 12 12 11 12 11 11 11 11 12 11 11
4 3 2 2 1 1 0 -0 -1 -1 -1 -1 -1 -1 -1 -1 -1 -1 -1 -1 -1 1 3 4 5 6 6 7 9 10 10 10 11 12 13 12 12 12 11 11 12 11 11

GFSSE_850_temp_384.txt.gz
Temp
8 9 11 11 11 11 12 12 12 13 13 13 13 14 15 15 15 15 15 15 15 16 15 15 16 16 16 16 16 15 16 15 15 15 16 16 16 14 14 14 13 13 12
8 9 9 9 12 11 12 12 12 13 13 13 13 13 14 15 15 15 15 15 15 16 16 15 15 16 16 16 16 16 15 15 15 15 16 16 16 14 13 13 13 12 11
8 8 10 10 11 11 11 11 12 13 13 13 12 13 13 13 14 15 15 15 15 15 15 15 16 16 16 16 16 15 14 14 15 15 15 15 14 13 13 12 12 11 12
8 8 9 9 10 11 11 11 11 12 13 12 12 12 13 13 13 14 14 14 15 14 14 15 15 15 15 15 15 14 14 14 15 15 15 15 14 13 12 12 12 12 12
8 8 8 8 9 9 7 12 10 10 12 12 12 12 13 13 13 13 13 13 14 14 15 15 15 15 14 15 14 14 14 14 15 15 15 15 15 13 12 12 12 12 11
8 9 9 8 9 9 8 5 6 8 10 12 12 11 12 12 13 13 13 13 13 14 14 15 14 14 14 14 14 14 14 14 14 15 15 15 14 12 12 12 11 11 11
8 8 9 8 8 8 9 8 5 5 8 10 11 12 11 12 12 13 13 13 13 13 13 14 14 14 14 14 14 13 14 14 14 15 15 14 14 12 12 12 11 11 11
8 8 8 8 8 8 8 8 9 8 8 8 10 10 10 11 11 12 13 13 13 12 12 13 13 13 13 14 14 13 13 14 14 15 14 14 13 12 11 11 11 11 11
7 7 8 8 8 7 7 8 8 8 9 10 9 8 10 12 11 11 12 13 13 12 13 13 13 13 13 14 13 13 13 13 14 14 14 14 13 13 11 10 11 11 10
8 8 8 8 8 8 7 7 7 7 6 7 7 7 8 10 10 10 12 12 13 12 13 13 13 13 13 14 14 13 13 12 13 13 14 14 13 12 11 10 10 10 10
8 8 9 8 8 7 8 7 6 6 6 6 7 8 8 9 9 9 11 12 12 12 13 13 12 13 13 13 14 13 13 13 14 13 13 13 13 12 12 11 10 10 9
9 9 8 8 8 7 8 7 7 6 6 6 5 6 7 7 8 8 9 10 11 12 12 13 13 13 13 12 13 13 12 13 13 13 13 13 12 12 12 11 11 10 9
9 8 8 8 7 7 6 7 7 7 6 6 6 4 5 5 6 7 9 10 11 12 12 13 13 13 13 13 13 13 13 12 14 13 13 13 12 12 11 11 10 10 10
9 9 8 8 7 7 6 6 6 6 7 6 5 5 4 4 5 6 7 8 10 11 12 12 12 13 13 13 13 13 12 13 14 13 13 13 12 12 11 10 10 10 9
9 9 9 8 7 6 6 6 6 5 6 6 5 4 4 4 3 4 5 7 8 10 11 12 12 12 12 12 12 12 12 12 12 13 13 13 12 12 11 10 10 10 9
10 9 8 8 7 6 5 5 4 4 5 5 5 4 3 3 2 3 4 6 7 9 11 12 12 12 12 12 13 13 12 12 12 13 13 13 11 12 11 11 10 10 9
10 9 8 7 6 5 5 4 4 3 3 4 4 4 3 2 2 2 3 5 6 7 9 11 12 12 13 12 13 13 12 12 12 13 13 13 11 12 11 11 11 10 9
9 8 8 6 5 4 3 3 2 2 3 3 3 2 2 2 2 2 2 3 5 6 8 10 11 12 12 12 12 13 13 12 12 12 12 12 12 11 11 11 11 10 10
9 8 7 6 4 3 2 2 2 2 2 2 2 2 2 1 2 1 2 2 4 5 7 8 10 11 12 12 12 12 12 11 12 12 12 12 12 12 11 11 10 10 10
8 7 6 5 3 2 2 2 2 2 2 1 1 1 1 1 1 1 1 2 3 4 6 6 9 11 11 12 12 12 12 11 12 11 12 12 12 11 11 11 10 10 10
7 6 6 5 4 2 2 2 2 1 1 0 0 0 1 1 0 1 1 1 2 3 5 5 8 10 11 11 11 11 12 12 11 11 12 11 11 11 11 11 10 10 10
7 6 5 4 3 2 1 1 0 -0 0 -0 -0 -0 0 -0 -0 0 -0 1 1 2 4 5 7 9 10 11 11 11 11 11 11 11 11 11 11 11 11 11 11 10 10
6 5 4 3 2 1 1 -0 -0 -0 -0 -0 -1 -1 -1 -1 -1 -1 -1 -0 1 2 4 4 6 7 10 11 11 11 11 11 11 11 11 11 11 11 11 12 11 11 10
5 4 3 2 2 1 0 -0 -0 -1 -1 -1 -1 -1 -1 -1 -1 -2 -1 -1 -0 1 3 4 5 7 9 10 11 11 11 12 11 10 10 11 11 11 11 12 12 11 11
5 4 3 2 1 1 0 -0 -1 -1 -1 -1 -1 -1 -1 -1 -1 -1 -1 -0 -1 1 2 3 5 5 7 10 10 10 10 11 12 12 11 11 11 11 11 12 12 12 11
4 3 2 1 1 0 0 -0 -1 -1 -2 -2 -2 -2 -1 -1 -2 -1 -1 -1 -1 -1 1 3 5 6 7 8 10 10 10 10 11 11 12 12 11 11 11 12 11 12 12